Time,TemperatureF,DewpointF,PressureIn,WindDirection,WindDirectionDegrees,WindSpeedMPH,WindSpeedGustMPH,Humidity,HourlyPrecipIn,Conditions,Clouds,dailyrainin,SolarRadiationWatts/m^2,SoftwareType,DateUTC
2013-07-30 00:04:00,79.2,75.9,30.02,SSE,159,6.0,6.9,90,0.00,,,0.00,0.0,meteobridge,2013-07-30 05:04:00,
2013-07-30 00:09:00,79.2,75.9,30.02,SSE,164,4.0,6.9,90,0.00,,,0.00,0.0,meteobridge,2013-07-30 05:09:00,
2013-07-30 00:14:00,79.2,75.9,30.02,SSE,159,4.0,6.9,90,0.00,,,0.00,0.0,meteobridge,2013-07-30 05:14:00,
2013-07-30 00:19:00,79.2,75.9,30.02,SSE,161,4.0,6.9,90,0.00,,,0.00,0.0,meteobridge,2013-07-30 05:19:00,
2013-07-30 00:24:00,79.2,75.9,30.02,South,172,4.9,6.9,90,0.00,,,0.00,0.0,meteobridge,2013-07-30 05:24:00,
2013-07-30 00:29:00,79.0,75.7,30.02,South,173,6.0,6.9,90,0.00,,,0.00,0.0,meteobridge,2013-07-30 05:29:00,
2013-07-30 00:34:00,79.0,75.7,30.02,South,170,6.9,8.1,90,0.00,,,0.00,0.0,meteobridge,2013-07-30 05:34:00,
2013-07-30 00:39:00,79.0,75.7,30.02,SSE,162,4.9,8.1,90,0.00,,,0.00,0.0,meteobridge,2013-07-30 05:39:00,
2013-07-30 00:44:00,79.0,75.7,30.02,SSE,165,4.0,6.9,90,0.00,,,0.00,0.0,meteobridge,2013-07-30 05:44:00,
2013-07-30 00:49:00,79.0,75.7,30.02,South,178,4.9,8.9,90,0.00,,,0.00,0.0,meteobridge,2013-07-30 05:49:00,
2013-07-30 00:54:00,79.0,75.7,30.02,South,175,2.0,6.0,90,0.00,,,0.00,0.0,meteobridge,2013-07-30 05:54:00,
2013-07-30 01:00:00,78.6,75.4,30.02,South,174,2.0,4.9,90,0.00,,,0.00,0.0,meteobridge,2013-07-30 06:00:00,
2013-07-30 01:05:00,78.6,75.4,30.02,SSE,166,4.0,4.0,90,0.00,,,0.00,0.0,meteobridge,2013-07-30 06:05:00,
2013-07-30 01:10:00,78.4,75.6,30.02,SSE,161,2.9,4.9,91,0.00,,,0.00,0.0,meteobridge,2013-07-30 06:10:00,
2013-07-30 01:15:00,78.4,75.6,30.03,South,175,2.9,4.9,91,0.00,,,0.00,0.0,meteobridge,2013-07-30 06:15:00,
2013-07-30 01:20:00,78.3,75.4,30.03,South,171,2.9,4.9,91,0.00,,,0.00,0.0,meteobridge,2013-07-30 06:20:00,
2013-07-30 01:25:00,78.3,75.4,30.03,South,169,2.9,4.9,91,0.00,,,0.00,0.0,meteobridge,2013-07-30 06:25:00,
2013-07-30 01:30:00,78.1,75.2,30.03,SSE,166,4.0,4.9,91,0.00,,,0.00,0.0,meteobridge,2013-07-30 06:30:00,
2013-07-30 01:35:00,78.1,75.6,30.03,SSE,163,2.9,4.9,92,0.00,,,0.00,0.0,meteobridge,2013-07-30 06:35:00,
2013-07-30 01:40:00,78.1,75.6,30.03,SSE,158,2.0,4.9,92,0.00,,,0.00,0.0,meteobridge,2013-07-30 06:40:00,
2013-07-30 01:45:00,78.1,75.6,30.03,SE,143,4.0,4.9,92,0.00,,,0.00,0.0,meteobridge,2013-07-30 06:45:00,
2013-07-30 01:50:00,77.9,75.4,30.03,SSE,159,2.9,4.0,92,0.00,,,0.00,0.0,meteobridge,2013-07-30 06:50:00,
2013-07-30 01:55:00,77.7,75.2,30.03,SSE,158,4.0,4.9,92,0.00,,,0.00,0.0,meteobridge,2013-07-30 06:55:00,
2013-07-30 02:00:00,77.9,75.4,30.02,SSE,157,6.0,6.9,92,0.00,,,0.00,0.0,meteobridge,2013-07-30 07:00:00,
2013-07-30 02:05:00,77.7,75.2,30.02,SE,146,6.9,6.9,92,0.00,,,0.00,0.0,meteobridge,2013-07-30 07:05:00,
2013-07-30 02:10:00,77.9,75.4,30.02,South,172,4.0,6.0,92,0.00,,,0.00,0.0,meteobridge,2013-07-30 07:10:00,
2013-07-30 02:15:00,77.9,75.4,30.00,SSE,167,4.0,6.9,92,0.00,,,0.00,0.0,meteobridge,2013-07-30 07:15:00,
2013-07-30 02:20:00,77.9,75.4,30.00,SSE,157,4.0,8.1,92,0.00,,,0.00,0.0,meteobridge,2013-07-30 07:20:00,
2013-07-30 02:25:00,78.1,75.6,30.00,SSE,163,4.9,8.1,92,0.00,,,0.00,0.0,meteobridge,2013-07-30 07:25:00,
2013-07-30 02:30:00,78.1,75.6,30.00,SSE,154,4.9,6.9,92,0.00,,,0.00,0.0,meteobridge,2013-07-30 07:30:00,
2013-07-30 02:36:00,78.1,75.6,30.00,South,182,4.9,8.1,92,0.00,,,0.00,0.0,meteobridge,2013-07-30 07:36:00,
2013-07-30 02:41:00,78.1,75.6,30.00,SSE,157,6.0,6.9,92,0.00,,,0.00,0.0,meteobridge,2013-07-30 07:41:00,
2013-07-30 02:53:00,77.7,75.2,30.00,SSE,161,4.9,6.0,92,0.00,,,0.00,0.0,meteobridge,2013-07-30 07:53:00,
2013-07-30 02:58:00,77.7,75.2,30.00,South,175,4.0,6.0,92,0.00,,,0.00,0.0,meteobridge,2013-07-30 07:58:00,
2013-07-30 03:03:00,77.7,75.2,30.00,South,169,4.0,4.9,92,0.00,,,0.00,0.0,meteobridge,2013-07-30 08:03:00,
2013-07-30 03:08:00,77.7,75.2,30.00,South,173,2.9,4.9,92,0.00,,,0.00,0.0,meteobridge,2013-07-30 08:08:00,
2013-07-30 03:13:00,77.7,75.6,30.00,SSE,162,4.0,6.0,93,0.00,,,0.00,0.0,meteobridge,2013-07-30 08:13:00,
2013-07-30 03:18:00,77.9,75.7,30.00,SSE,156,4.9,6.9,93,0.00,,,0.00,0.0,meteobridge,2013-07-30 08:18:00,
2013-07-30 03:23:00,77.9,75.4,30.00,SSE,159,4.0,6.0,92,0.00,,,0.00,0.0,meteobridge,2013-07-30 08:23:00,
2013-07-30 03:28:00,77.9,75.4,30.00,SSE,155,4.9,6.0,92,0.00,,,0.00,0.0,meteobridge,2013-07-30 08:28:00,
2013-07-30 03:33:00,78.1,75.6,30.00,SSE,166,4.9,6.9,92,0.00,,,0.00,0.0,meteobridge,2013-07-30 08:33:00,
2013-07-30 03:38:00,78.1,75.6,30.00,South,170,6.0,6.9,92,0.00,,,0.00,0.0,meteobridge,2013-07-30 08:38:00,
2013-07-30 03:43:00,78.1,75.6,30.00,SSE,160,4.9,8.1,92,0.00,,,0.00,0.0,meteobridge,2013-07-30 08:43:00,
2013-07-30 03:49:00,78.3,75.7,30.00,SSE,162,6.0,6.0,92,0.00,,,0.00,0.0,meteobridge,2013-07-30 08:49:00,
2013-07-30 03:54:00,78.3,75.7,30.00,South,173,4.0,8.9,92,0.00,,,0.00,0.0,meteobridge,2013-07-30 08:54:00,
2013-07-30 03:59:00,78.4,75.9,30.00,South,181,2.9,6.0,92,0.00,,,0.00,0.0,meteobridge,2013-07-30 08:59:00,
2013-07-30 04:04:00,78.4,75.9,30.01,South,177,6.9,6.9,92,0.00,,,0.00,0.0,meteobridge,2013-07-30 09:04:00,
2013-07-30 04:09:00,78.4,75.9,30.01,South,190,4.9,6.0,92,0.00,,,0.00,0.0,meteobridge,2013-07-30 09:09:00,
2013-07-30 04:14:00,78.4,75.9,30.01,SSE,165,2.9,4.9,92,0.00,,,0.00,0.0,meteobridge,2013-07-30 09:14:00,
2013-07-30 04:19:00,78.3,75.7,30.01,SSE,165,4.0,4.9,92,0.00,,,0.00,0.0,meteobridge,2013-07-30 09:19:00,
2013-07-30 04:24:00,78.3,75.7,30.01,SSE,161,6.0,6.9,92,0.00,,,0.00,0.0,meteobridge,2013-07-30 09:24:00,
2013-07-30 04:29:00,78.3,75.7,30.01,SSE,155,6.0,6.0,92,0.00,,,0.00,0.0,meteobridge,2013-07-30 09:29:00,
2013-07-30 04:34:00,78.3,76.1,30.00,SSE,160,4.0,6.9,93,0.00,,,0.00,0.0,meteobridge,2013-07-30 09:34:00,
2013-07-30 04:39:00,78.3,76.1,30.00,SSE,154,6.0,8.9,93,0.00,,,0.00,0.0,meteobridge,2013-07-30 09:39:00,
2013-07-30 04:44:00,78.4,75.9,30.00,SSE,164,6.0,8.1,92,0.00,,,0.00,0.0,meteobridge,2013-07-30 09:44:00,
2013-07-30 04:49:00,78.4,75.9,30.00,SSE,165,4.9,6.9,92,0.00,,,0.00,0.0,meteobridge,2013-07-30 09:49:00,
2013-07-30 04:54:00,78.3,75.7,30.00,South,187,4.9,6.0,92,0.00,,,0.00,0.0,meteobridge,2013-07-30 09:54:00,
2013-07-30 04:59:00,78.3,75.7,30.00,South,172,4.0,6.0,92,0.00,,,0.00,0.0,meteobridge,2013-07-30 09:59:00,
2013-07-30 05:04:00,78.3,75.7,30.01,South,179,4.9,4.9,92,0.00,,,0.00,0.0,meteobridge,2013-07-30 10:04:00,
2013-07-30 05:09:00,78.1,75.6,30.01,SSE,165,4.0,6.0,92,0.00,,,0.00,0.0,meteobridge,2013-07-30 10:09:00,
2013-07-30 05:14:00,78.1,75.6,30.01,South,186,2.9,6.0,92,0.00,,,0.00,0.0,meteobridge,2013-07-30 10:14:00,
2013-07-30 05:19:00,77.9,75.4,30.02,SSE,167,2.0,4.0,92,0.00,,,0.00,0.0,meteobridge,2013-07-30 10:19:00,
2013-07-30 05:24:00,77.7,75.2,30.02,South,178,0.9,4.0,92,0.00,,,0.00,0.0,meteobridge,2013-07-30 10:24:00,
2013-07-30 05:29:00,77.5,75.4,30.02,South,178,2.9,4.0,93,0.00,,,0.00,0.0,meteobridge,2013-07-30 10:29:00,
2013-07-30 05:34:00,77.4,75.2,30.03,South,175,2.9,2.9,93,0.00,,,0.00,0.0,meteobridge,2013-07-30 10:34:00,
2013-07-30 05:40:00,77.4,75.2,30.03,South,170,2.0,2.0,93,0.00,,,0.00,0.0,meteobridge,2013-07-30 10:40:00,
2013-07-30 05:45:00,77.2,75.0,30.03,South,171,2.0,2.9,93,0.00,,,0.00,0.0,meteobridge,2013-07-30 10:45:00,
2013-07-30 05:50:00,77.0,74.8,30.03,South,171,0.0,0.9,93,0.00,,,0.00,0.0,meteobridge,2013-07-30 10:50:00,
2013-07-30 05:55:00,76.8,74.7,30.03,South,171,0.0,0.0,93,0.00,,,0.00,0.0,meteobridge,2013-07-30 10:55:00,
2013-07-30 06:00:00,76.8,74.7,30.03,South,171,0.0,0.0,93,0.00,,,0.00,0.0,meteobridge,2013-07-30 11:00:00,
2013-07-30 06:05:00,76.6,74.8,30.03,South,171,0.0,0.0,94,0.00,,,0.00,0.0,meteobridge,2013-07-30 11:05:00,
2013-07-30 06:10:00,76.8,75.0,30.03,South,171,0.0,0.0,94,0.00,,,0.00,0.0,meteobridge,2013-07-30 11:10:00,
2013-07-30 06:16:00,77.0,75.2,30.03,South,171,0.0,0.0,94,0.00,,,0.00,0.0,meteobridge,2013-07-30 11:16:00,
2013-07-30 06:21:00,76.8,75.0,30.03,South,171,0.0,2.0,94,0.00,,,0.00,0.0,meteobridge,2013-07-30 11:21:00,
2013-07-30 06:26:00,76.8,75.0,30.03,South,171,0.0,0.9,94,0.00,,,0.00,0.0,meteobridge,2013-07-30 11:26:00,
2013-07-30 06:31:00,76.8,75.0,30.04,South,171,0.9,2.0,94,0.00,,,0.00,0.0,meteobridge,2013-07-30 11:31:00,
2013-07-30 06:36:00,76.6,74.8,30.04,SSE,161,0.9,2.0,94,0.00,,,0.00,0.0,meteobridge,2013-07-30 11:36:00,
2013-07-30 06:41:00,76.6,74.8,30.04,SSE,161,0.9,2.0,94,0.00,,,0.00,0.0,meteobridge,2013-07-30 11:41:00,
2013-07-30 06:46:00,76.1,73.9,30.04,SSE,159,2.0,2.9,93,0.00,,,0.00,0.0,meteobridge,2013-07-30 11:46:00,
2013-07-30 06:52:00,75.7,73.6,30.04,SSE,165,0.9,2.9,93,0.00,,,0.00,7.0,meteobridge,2013-07-30 11:52:00,
2013-07-30 06:57:00,75.6,73.8,30.04,SSE,168,0.0,2.9,94,0.00,,,0.00,12.0,meteobridge,2013-07-30 11:57:00,
2013-07-30 07:02:00,75.6,73.8,30.05,SSE,168,0.0,0.9,94,0.00,,,0.00,18.0,meteobridge,2013-07-30 12:02:00,
2013-07-30 07:07:00,75.7,74.1,30.05,South,187,0.0,0.0,95,0.00,,,0.00,25.0,meteobridge,2013-07-30 12:07:00,
2013-07-30 07:12:00,75.9,74.3,30.05,South,184,0.0,0.0,95,0.00,,,0.00,32.0,meteobridge,2013-07-30 12:12:00,
2013-07-30 07:17:00,76.1,74.5,30.05,South,184,0.0,0.0,95,0.00,,,0.00,39.0,meteobridge,2013-07-30 12:17:00,
2013-07-30 07:22:00,76.1,74.5,30.05,South,182,0.0,0.0,95,0.00,,,0.00,46.0,meteobridge,2013-07-30 12:22:00,
2013-07-30 07:27:00,76.3,74.7,30.05,South,173,2.0,2.0,95,0.00,,,0.00,53.0,meteobridge,2013-07-30 12:27:00,
2013-07-30 07:32:00,76.6,75.0,30.05,SSE,161,2.9,4.0,95,0.00,,,0.00,60.0,meteobridge,2013-07-30 12:32:00,
2013-07-30 07:37:00,77.0,75.4,30.05,SSE,154,2.9,4.0,95,0.00,,,0.00,65.0,meteobridge,2013-07-30 12:37:00,
2013-07-30 07:42:00,77.4,75.7,30.05,SSE,151,2.9,4.0,95,0.00,,,0.00,70.0,meteobridge,2013-07-30 12:42:00,
2013-07-30 07:47:00,77.5,75.9,30.05,SSE,151,2.0,4.0,95,0.00,,,0.00,72.0,meteobridge,2013-07-30 12:47:00,
2013-07-30 07:52:00,78.1,76.5,30.05,SSE,165,4.0,4.9,95,0.00,,,0.00,84.0,meteobridge,2013-07-30 12:52:00,
2013-07-30 07:57:00,78.4,76.8,30.05,SSE,155,2.9,4.9,95,0.00,,,0.00,160.0,meteobridge,2013-07-30 12:57:00,
2013-07-30 08:02:00,78.6,77.0,30.05,SSE,158,6.0,6.0,95,0.00,,,0.00,181.0,meteobridge,2013-07-30 13:02:00,
2013-07-30 08:07:00,79.2,77.4,30.05,South,175,4.0,4.9,94,0.00,,,0.00,199.0,meteobridge,2013-07-30 13:07:00,
2013-07-30 08:12:00,79.5,77.7,30.05,South,178,2.9,6.0,94,0.00,,,0.00,218.0,meteobridge,2013-07-30 13:12:00,
2013-07-30 08:17:00,80.1,78.3,30.06,South,184,2.9,4.9,94,0.00,,,0.00,236.0,meteobridge,2013-07-30 13:17:00,
2013-07-30 08:23:00,80.4,78.3,30.06,South,172,2.9,4.9,93,0.00,,,0.00,251.0,meteobridge,2013-07-30 13:23:00,
2013-07-30 08:28:00,81.0,78.4,30.06,South,181,4.0,4.9,92,0.00,,,0.00,274.0,meteobridge,2013-07-30 13:28:00,
2013-07-30 08:33:00,81.3,78.4,30.06,South,188,4.9,6.9,91,0.00,,,0.00,294.0,meteobridge,2013-07-30 13:33:00,
2013-07-30 08:38:00,81.7,78.4,30.06,South,184,4.9,8.1,90,0.00,,,0.00,322.0,meteobridge,2013-07-30 13:38:00,
2013-07-30 08:43:00,82.2,79.0,30.06,South,189,4.9,6.0,90,0.00,,,0.00,357.0,meteobridge,2013-07-30 13:43:00,
2013-07-30 08:48:00,82.6,79.0,30.06,SSW,198,6.9,8.1,89,0.00,,,0.00,415.0,meteobridge,2013-07-30 13:48:00,
2013-07-30 08:53:00,82.9,79.3,30.06,SSW,196,6.9,8.1,89,0.00,,,0.00,403.0,meteobridge,2013-07-30 13:53:00,
2013-07-30 08:58:00,82.9,77.9,30.06,South,175,8.9,11.0,85,0.00,,,0.00,410.0,meteobridge,2013-07-30 13:58:00,
2013-07-30 09:03:00,82.9,77.2,30.06,South,179,8.1,13.0,83,0.00,,,0.00,420.0,meteobridge,2013-07-30 14:03:00,
2013-07-30 09:08:00,82.9,77.5,30.06,South,180,6.0,10.1,84,0.00,,,0.00,338.0,meteobridge,2013-07-30 14:08:00,
2013-07-30 09:13:00,82.9,76.8,30.06,South,188,6.9,11.0,82,0.00,,,0.00,183.0,meteobridge,2013-07-30 14:13:00,
2013-07-30 09:18:00,83.5,77.4,30.06,SSW,198,6.9,14.1,82,0.00,,,0.00,462.0,meteobridge,2013-07-30 14:18:00,
2013-07-30 09:23:00,83.8,77.0,30.06,SSW,195,6.0,10.1,80,0.00,,,0.00,483.0,meteobridge,2013-07-30 14:23:00,
2013-07-30 09:28:00,84.6,77.7,30.06,SSW,192,4.9,10.1,80,0.00,,,0.00,483.0,meteobridge,2013-07-30 14:28:00,
2013-07-30 09:33:00,84.9,78.1,30.06,South,190,8.1,12.1,80,0.00,,,0.00,503.0,meteobridge,2013-07-30 14:33:00,
2013-07-30 09:38:00,84.9,77.4,30.06,SSW,200,8.9,12.1,78,0.00,,,0.00,520.0,meteobridge,2013-07-30 14:38:00,
2013-07-30 09:43:00,84.9,77.7,30.06,SSW,205,10.1,13.0,79,0.00,,,0.00,540.0,meteobridge,2013-07-30 14:43:00,
2013-07-30 09:48:00,84.9,77.4,30.06,SSW,194,8.1,14.1,78,0.00,,,0.00,533.0,meteobridge,2013-07-30 14:48:00,
2013-07-30 09:53:00,84.9,77.7,30.06,SSW,205,11.0,16.1,79,0.00,,,0.00,506.0,meteobridge,2013-07-30 14:53:00,
2013-07-30 09:58:00,85.1,77.9,30.06,SSW,209,6.9,12.1,79,0.00,,,0.00,461.0,meteobridge,2013-07-30 14:58:00,
2013-07-30 10:03:00,84.9,77.4,30.06,South,188,10.1,11.0,78,0.00,,,0.00,445.0,meteobridge,2013-07-30 15:03:00,
2013-07-30 10:08:00,85.1,77.5,30.06,SSW,205,10.1,11.0,78,0.00,,,0.00,520.0,meteobridge,2013-07-30 15:08:00,
2013-07-30 10:13:00,85.5,77.7,30.06,South,188,6.9,11.0,78,0.00,,,0.00,501.0,meteobridge,2013-07-30 15:13:00,
2013-07-30 10:19:00,85.6,77.9,30.06,SSW,209,8.9,13.0,78,0.00,,,0.00,610.0,meteobridge,2013-07-30 15:19:00,
2013-07-30 10:24:00,85.8,78.1,30.06,SSW,194,6.9,13.0,78,0.00,,,0.00,657.0,meteobridge,2013-07-30 15:24:00,
2013-07-30 10:29:00,86.5,78.4,30.06,SW,216,11.0,12.1,77,0.00,,,0.00,671.0,meteobridge,2013-07-30 15:29:00,
2013-07-30 10:34:00,86.5,77.7,30.06,SSW,199,6.0,11.0,75,0.00,,,0.00,687.0,meteobridge,2013-07-30 15:34:00,
2013-07-30 10:39:00,87.1,77.4,30.06,SSW,196,6.9,11.0,73,0.00,,,0.00,694.0,meteobridge,2013-07-30 15:39:00,
2013-07-30 10:44:00,87.3,77.9,30.06,South,184,10.1,13.0,74,0.00,,,0.00,729.0,meteobridge,2013-07-30 15:44:00,
2013-07-30 10:49:00,87.4,79.0,30.06,South,171,4.9,8.1,76,0.00,,,0.00,763.0,meteobridge,2013-07-30 15:49:00,
2013-07-30 10:54:00,88.0,78.6,30.06,SSW,200,6.9,10.1,74,0.00,,,0.00,722.0,meteobridge,2013-07-30 15:54:00,
2013-07-30 10:59:00,87.6,77.5,30.06,SSW,196,6.9,10.1,72,0.00,,,0.00,756.0,meteobridge,2013-07-30 15:59:00,
2013-07-30 11:04:00,88.0,78.3,30.06,SSW,194,4.0,8.1,73,0.00,,,0.00,759.0,meteobridge,2013-07-30 16:04:00,
2013-07-30 11:09:00,88.3,78.6,30.06,SSE,159,6.0,10.1,73,0.00,,,0.00,770.0,meteobridge,2013-07-30 16:09:00,
2013-07-30 11:14:00,88.3,78.6,30.06,South,179,4.9,8.1,73,0.00,,,0.00,775.0,meteobridge,2013-07-30 16:14:00,
2013-07-30 11:19:00,88.5,77.9,30.06,SSW,204,4.9,8.9,71,0.00,,,0.00,772.0,meteobridge,2013-07-30 16:19:00,
2013-07-30 11:24:00,88.5,77.5,30.06,SSE,157,8.1,8.9,70,0.00,,,0.00,816.0,meteobridge,2013-07-30 16:24:00,
2013-07-30 11:29:00,89.1,77.5,30.06,South,182,2.9,6.9,69,0.00,,,0.00,810.0,meteobridge,2013-07-30 16:29:00,
2013-07-30 11:34:00,89.2,79.0,30.06,SSW,205,6.0,6.9,72,0.00,,,0.00,798.0,meteobridge,2013-07-30 16:34:00,
2013-07-30 11:39:00,88.9,76.5,30.06,SSW,205,6.0,6.9,67,0.00,,,0.00,814.0,meteobridge,2013-07-30 16:39:00,
2013-07-30 11:44:00,89.4,77.5,30.06,South,187,8.1,8.1,68,0.00,,,0.00,715.0,meteobridge,2013-07-30 16:44:00,
2013-07-30 11:49:00,89.4,77.0,30.06,SSW,199,2.9,6.9,67,0.00,,,0.00,717.0,meteobridge,2013-07-30 16:49:00,
2013-07-30 11:54:00,90.0,79.3,30.06,SSE,166,8.9,8.9,71,0.00,,,0.00,831.0,meteobridge,2013-07-30 16:54:00,
2013-07-30 12:00:00,90.1,77.7,30.06,South,170,6.0,11.0,67,0.00,,,0.00,870.0,meteobridge,2013-07-30 17:00:00,
2013-07-30 12:05:00,90.3,77.0,30.06,SW,220,8.1,8.9,65,0.00,,,0.00,884.0,meteobridge,2013-07-30 17:05:00,
2013-07-30 12:10:00,90.1,75.9,30.06,SSW,199,8.9,12.1,63,0.00,,,0.00,905.0,meteobridge,2013-07-30 17:10:00,
2013-07-30 12:15:00,90.1,75.9,30.06,SW,229,10.1,12.1,63,0.00,,,0.00,879.0,meteobridge,2013-07-30 17:15:00,
2013-07-30 12:20:00,90.7,76.8,30.06,South,191,6.0,10.1,64,0.00,,,0.00,902.0,meteobridge,2013-07-30 17:20:00,
2013-07-30 12:25:00,90.9,76.1,30.06,SSW,209,8.1,12.1,62,0.00,,,0.00,728.0,meteobridge,2013-07-30 17:25:00,
2013-07-30 12:30:00,90.1,76.8,30.05,SSW,213,4.0,8.1,65,0.00,,,0.00,823.0,meteobridge,2013-07-30 17:30:00,
2013-07-30 12:35:00,90.3,75.6,30.05,SSW,200,6.0,8.9,62,0.00,,,0.00,884.0,meteobridge,2013-07-30 17:35:00,
2013-07-30 12:40:00,91.0,75.7,30.05,SSW,201,4.9,14.1,61,0.00,,,0.00,905.0,meteobridge,2013-07-30 17:40:00,
2013-07-30 12:45:00,91.6,76.6,30.05,South,189,8.1,11.0,62,0.00,,,0.00,902.0,meteobridge,2013-07-30 17:45:00,
2013-07-30 12:50:00,91.6,75.2,30.05,SSW,212,8.1,12.1,59,0.00,,,0.00,942.0,meteobridge,2013-07-30 17:50:00,
2013-07-30 12:55:00,91.6,76.3,30.05,South,190,8.9,13.0,61,0.00,,,0.00,932.0,meteobridge,2013-07-30 17:55:00,
2013-07-30 13:00:00,91.9,76.1,30.04,SSW,200,8.1,11.0,60,0.00,,,0.00,919.0,meteobridge,2013-07-30 18:00:00,
2013-07-30 13:05:00,91.9,76.6,30.04,SW,227,6.0,8.9,61,0.00,,,0.00,877.0,meteobridge,2013-07-30 18:05:00,
2013-07-30 13:10:00,91.6,77.2,30.04,South,180,6.0,10.1,63,0.00,,,0.00,835.0,meteobridge,2013-07-30 18:10:00,
2013-07-30 13:15:00,91.2,76.3,30.04,SSW,210,6.9,10.1,62,0.00,,,0.00,738.0,meteobridge,2013-07-30 18:15:00,
2013-07-30 13:20:00,91.0,76.6,30.04,SSW,207,8.1,10.1,63,0.00,,,0.00,717.0,meteobridge,2013-07-30 18:20:00,
2013-07-30 13:25:00,90.9,76.5,30.04,SSW,207,10.1,11.0,63,0.00,,,0.00,738.0,meteobridge,2013-07-30 18:25:00,
2013-07-30 13:30:00,90.7,75.9,30.03,SSW,210,8.9,8.9,62,0.00,,,0.00,689.0,meteobridge,2013-07-30 18:30:00,
2013-07-30 13:35:00,90.7,74.3,30.03,SW,217,8.1,13.0,59,0.00,,,0.00,687.0,meteobridge,2013-07-30 18:35:00,
2013-07-30 13:40:00,91.2,77.4,30.03,SSW,204,2.9,10.1,64,0.00,,,0.00,710.0,meteobridge,2013-07-30 18:40:00,
2013-07-30 13:45:00,91.2,75.4,30.03,South,179,6.0,10.1,60,0.00,,,0.00,821.0,meteobridge,2013-07-30 18:45:00,
2013-07-30 13:51:00,91.8,75.4,30.03,South,184,8.1,15.0,59,0.00,,,0.00,789.0,meteobridge,2013-07-30 18:51:00,
2013-07-30 13:56:00,92.7,76.3,30.03,South,169,6.0,11.0,59,0.00,,,0.00,744.0,meteobridge,2013-07-30 18:56:00,
2013-07-30 14:01:00,92.5,77.0,30.03,South,169,6.0,8.1,61,0.00,,,0.00,700.0,meteobridge,2013-07-30 19:01:00,
2013-07-30 14:06:00,91.9,75.0,30.03,South,190,6.9,11.0,58,0.00,,,0.00,612.0,meteobridge,2013-07-30 19:06:00,
2013-07-30 14:07:00,91.9,74.5,30.03,SSE,153,6.9,12.1,57,0.00,,,0.00,645.0,meteobridge,2013-07-30 19:07:00,
2013-07-30 14:12:00,91.9,73.4,30.03,SSE,165,6.0,14.1,55,0.00,,,0.00,802.0,meteobridge,2013-07-30 19:12:00,
2013-07-30 14:17:00,92.7,75.7,30.03,South,170,8.9,13.0,58,0.00,,,0.00,819.0,meteobridge,2013-07-30 19:17:00,
2013-07-30 14:23:00,92.1,77.7,30.03,South,182,13.0,13.0,63,0.00,,,0.00,793.0,meteobridge,2013-07-30 19:23:00,
2013-07-30 14:28:00,91.8,77.9,30.03,SSE,162,8.9,13.0,64,0.00,,,0.00,740.0,meteobridge,2013-07-30 19:28:00,
2013-07-30 14:33:00,91.2,77.7,30.03,SSE,160,8.9,13.0,65,0.00,,,0.00,661.0,meteobridge,2013-07-30 19:33:00,
2013-07-30 14:38:00,91.2,77.7,30.03,SSE,148,8.1,13.0,65,0.00,,,0.00,793.0,meteobridge,2013-07-30 19:38:00,
2013-07-30 14:43:00,90.9,77.9,30.03,SE,134,8.1,14.1,66,0.00,,,0.00,830.0,meteobridge,2013-07-30 19:43:00,
2013-07-30 14:48:00,91.0,77.5,30.02,SE,134,10.1,14.1,65,0.00,,,0.00,809.0,meteobridge,2013-07-30 19:48:00,
2013-07-30 14:53:00,91.0,79.0,30.02,South,171,8.9,12.1,68,0.00,,,0.00,700.0,meteobridge,2013-07-30 19:53:00,
2013-07-30 14:58:00,91.0,78.1,30.02,SSE,150,6.9,16.1,66,0.00,,,0.00,770.0,meteobridge,2013-07-30 19:58:00,
2013-07-30 15:03:00,90.9,77.9,30.02,SE,142,8.1,12.1,66,0.00,,,0.00,809.0,meteobridge,2013-07-30 20:03:00,
2013-07-30 15:08:00,91.4,79.3,30.02,SE,138,12.1,14.1,68,0.00,,,0.00,793.0,meteobridge,2013-07-30 20:08:00,
2013-07-30 15:14:00,90.3,78.3,30.02,South,169,10.1,15.0,68,0.00,,,0.00,726.0,meteobridge,2013-07-30 20:14:00,
2013-07-30 15:19:00,90.7,78.3,30.02,South,173,8.9,13.0,67,0.00,,,0.00,643.0,meteobridge,2013-07-30 20:19:00,
2013-07-30 15:24:00,90.0,77.9,30.02,ESE,120,13.0,15.0,68,0.00,,,0.00,677.0,meteobridge,2013-07-30 20:24:00,
2013-07-30 15:29:00,89.4,77.9,30.02,SE,144,11.0,16.1,69,0.00,,,0.00,657.0,meteobridge,2013-07-30 20:29:00,
2013-07-30 15:34:00,89.8,78.3,30.02,SSE,161,10.1,13.0,69,0.00,,,0.00,712.0,meteobridge,2013-07-30 20:34:00,
2013-07-30 15:39:00,90.1,78.1,30.02,SE,141,10.1,14.1,68,0.00,,,0.00,717.0,meteobridge,2013-07-30 20:39:00,
2013-07-30 15:44:00,90.0,78.4,30.02,SSE,157,8.9,12.1,69,0.00,,,0.00,686.0,meteobridge,2013-07-30 20:44:00,
2013-07-30 15:49:00,89.8,78.3,30.01,SSE,157,11.0,12.1,69,0.00,,,0.00,606.0,meteobridge,2013-07-30 20:49:00,
2013-07-30 15:54:00,89.2,78.1,30.01,South,169,8.9,16.1,70,0.00,,,0.00,615.0,meteobridge,2013-07-30 20:54:00,
2013-07-30 15:59:00,89.2,78.1,30.01,South,190,15.0,15.0,70,0.00,,,0.00,626.0,meteobridge,2013-07-30 20:59:00,
2013-07-30 16:04:00,89.4,78.8,30.01,SSE,158,11.0,15.0,71,0.00,,,0.00,682.0,meteobridge,2013-07-30 21:04:00,
2013-07-30 16:09:00,89.8,78.6,30.01,SSE,166,6.9,13.0,70,0.00,,,0.00,661.0,meteobridge,2013-07-30 21:09:00,
2013-07-30 16:14:00,89.8,78.6,30.01,SSE,154,10.1,13.0,70,0.00,,,0.00,647.0,meteobridge,2013-07-30 21:14:00,
2013-07-30 16:19:00,89.1,78.4,30.01,SSE,156,12.1,15.0,71,0.00,,,0.00,671.0,meteobridge,2013-07-30 21:19:00,
2013-07-30 16:24:00,89.1,78.8,30.01,South,183,13.0,15.0,72,0.00,,,0.00,673.0,meteobridge,2013-07-30 21:24:00,
2013-07-30 16:29:00,88.9,78.3,30.01,SSE,149,14.1,14.1,71,0.00,,,0.00,656.0,meteobridge,2013-07-30 21:29:00,
2013-07-30 16:34:00,88.9,78.3,30.01,SE,135,8.9,17.9,71,0.00,,,0.00,661.0,meteobridge,2013-07-30 21:34:00,
2013-07-30 16:39:00,88.9,78.3,30.01,SE,136,10.1,16.1,71,0.00,,,0.00,621.0,meteobridge,2013-07-30 21:39:00,
2013-07-30 16:44:00,89.2,78.1,30.01,SSE,167,14.1,16.1,70,0.00,,,0.00,631.0,meteobridge,2013-07-30 21:44:00,
2013-07-30 16:49:00,89.2,78.6,30.01,South,171,12.1,16.1,71,0.00,,,0.00,633.0,meteobridge,2013-07-30 21:49:00,
2013-07-30 16:55:00,89.1,78.4,30.01,South,173,12.1,14.1,71,0.00,,,0.00,594.0,meteobridge,2013-07-30 21:55:00,
2013-07-30 17:00:00,88.9,78.3,30.00,SSE,150,8.9,15.0,71,0.00,,,0.00,425.0,meteobridge,2013-07-30 22:00:00,
2013-07-30 17:05:00,88.2,77.5,30.00,SE,137,10.1,15.0,71,0.00,,,0.00,404.0,meteobridge,2013-07-30 22:05:00,
2013-07-30 17:10:00,87.6,77.5,30.00,SSE,157,11.0,12.1,72,0.00,,,0.00,366.0,meteobridge,2013-07-30 22:10:00,
2013-07-30 17:15:00,88.0,78.3,30.00,SSE,150,8.1,13.0,73,0.00,,,0.00,591.0,meteobridge,2013-07-30 22:15:00,
2013-07-30 17:20:00,88.0,77.4,30.00,SE,142,8.9,15.0,71,0.00,,,0.00,529.0,meteobridge,2013-07-30 22:20:00,
2013-07-30 17:25:00,88.3,77.7,30.00,SSE,154,10.1,13.0,71,0.00,,,0.00,541.0,meteobridge,2013-07-30 22:25:00,
2013-07-30 17:30:00,88.5,78.3,30.00,South,182,14.1,16.1,72,0.00,,,0.00,497.0,meteobridge,2013-07-30 22:30:00,
2013-07-30 17:35:00,88.3,77.4,30.00,SE,144,6.0,13.0,70,0.00,,,0.00,483.0,meteobridge,2013-07-30 22:35:00,
2013-07-30 17:40:00,88.0,77.4,30.00,SSW,193,8.9,14.1,71,0.00,,,0.00,490.0,meteobridge,2013-07-30 22:40:00,
2013-07-30 17:45:00,88.0,77.9,30.00,SSE,164,8.9,14.1,72,0.00,,,0.00,461.0,meteobridge,2013-07-30 22:45:00,
2013-07-30 17:50:00,87.4,77.7,30.00,SE,145,6.0,14.1,73,0.00,,,0.00,446.0,meteobridge,2013-07-30 22:50:00,
2013-07-30 17:55:00,87.6,77.5,30.00,SSE,165,6.9,13.0,72,0.00,,,0.00,427.0,meteobridge,2013-07-30 22:55:00,
2013-07-30 18:00:00,87.4,77.7,30.00,SE,139,6.0,14.1,73,0.00,,,0.00,366.0,meteobridge,2013-07-30 23:00:00,
2013-07-30 18:05:00,87.1,77.4,30.00,SSE,162,8.9,16.1,73,0.00,,,0.00,362.0,meteobridge,2013-07-30 23:05:00,
2013-07-30 18:10:00,87.1,77.7,30.00,SSE,148,11.0,12.1,74,0.00,,,0.00,311.0,meteobridge,2013-07-30 23:10:00,
2013-07-30 18:16:00,86.7,77.0,29.99,SSE,153,10.1,15.0,73,0.00,,,0.00,290.0,meteobridge,2013-07-30 23:16:00,
2013-07-30 18:21:00,86.5,77.2,29.99,SE,139,8.1,14.1,74,0.00,,,0.00,302.0,meteobridge,2013-07-30 23:21:00,
2013-07-30 18:26:00,86.5,77.7,29.99,SSE,150,11.0,11.0,75,0.00,,,0.00,255.0,meteobridge,2013-07-30 23:26:00,
2013-07-30 18:31:00,86.4,77.5,29.99,SSE,159,12.1,13.0,75,0.00,,,0.00,258.0,meteobridge,2013-07-30 23:31:00,
2013-07-30 18:36:00,86.2,77.0,29.99,SSE,150,12.1,13.0,74,0.00,,,0.00,223.0,meteobridge,2013-07-30 23:36:00,
2013-07-30 18:41:00,85.8,76.6,29.99,SE,146,6.9,10.1,74,0.00,,,0.00,213.0,meteobridge,2013-07-30 23:41:00,
2013-07-30 18:46:00,85.8,77.0,29.98,SSE,165,12.1,13.0,75,0.00,,,0.00,214.0,meteobridge,2013-07-30 23:46:00,
2013-07-30 18:51:00,85.6,76.8,29.98,SSE,161,8.1,12.1,75,0.00,,,0.00,193.0,meteobridge,2013-07-30 23:51:00,
2013-07-30 18:56:00,85.5,77.0,29.98,South,177,8.1,13.0,76,0.00,,,0.00,181.0,meteobridge,2013-07-30 23:56:00,
2013-07-30 19:01:00,85.3,76.8,29.98,SSE,167,8.1,11.0,76,0.00,,,0.00,171.0,meteobridge,2013-07-31 00:01:00,
2013-07-30 19:06:00,85.3,77.2,29.98,SE,136,6.9,11.0,77,0.00,,,0.00,149.0,meteobridge,2013-07-31 00:06:00,
2013-07-30 19:11:00,84.9,76.8,29.98,SE,134,11.0,16.1,77,0.00,,,0.00,134.0,meteobridge,2013-07-31 00:11:00,
2013-07-30 19:16:00,84.7,77.2,29.98,South,180,6.0,14.1,78,0.00,,,0.00,109.0,meteobridge,2013-07-31 00:16:00,
2013-07-30 19:21:00,84.4,76.8,29.98,SSE,165,10.1,13.0,78,0.00,,,0.00,90.0,meteobridge,2013-07-31 00:21:00,
2013-07-30 19:26:00,84.0,76.8,29.98,SSE,163,8.1,12.1,79,0.00,,,0.00,72.0,meteobridge,2013-07-31 00:26:00,
2013-07-30 19:31:00,83.8,76.3,29.98,South,172,6.0,13.0,78,0.00,,,0.00,60.0,meteobridge,2013-07-31 00:31:00,
2013-07-30 19:36:00,83.7,76.5,29.98,SE,141,8.9,8.9,79,0.00,,,0.00,58.0,meteobridge,2013-07-31 00:36:00,
2013-07-30 19:41:00,83.5,76.3,29.98,SSE,155,6.0,12.1,79,0.00,,,0.00,47.0,meteobridge,2013-07-31 00:41:00,
2013-07-30 19:46:00,83.1,76.3,29.99,South,174,8.9,12.1,80,0.00,,,0.00,37.0,meteobridge,2013-07-31 00:46:00,
2013-07-30 19:51:00,82.9,76.5,29.99,SSE,148,8.9,11.0,81,0.00,,,0.00,30.0,meteobridge,2013-07-31 00:51:00,
2013-07-30 19:57:00,82.8,76.6,29.99,SSE,154,6.9,12.1,82,0.00,,,0.00,26.0,meteobridge,2013-07-31 00:57:00,
2013-07-30 20:02:00,82.4,76.6,29.99,South,177,10.1,10.1,83,0.00,,,0.00,21.0,meteobridge,2013-07-31 01:02:00,
2013-07-30 20:07:00,82.2,76.5,29.99,SSE,155,4.9,10.1,83,0.00,,,0.00,16.0,meteobridge,2013-07-31 01:07:00,
2013-07-30 20:12:00,82.0,76.3,29.99,SE,141,12.1,12.1,83,0.00,,,0.00,11.0,meteobridge,2013-07-31 01:12:00,
2013-07-30 20:17:00,81.9,76.1,29.99,SSE,164,6.0,12.1,83,0.00,,,0.00,5.0,meteobridge,2013-07-31 01:17:00,
2013-07-30 20:22:00,81.5,76.3,29.99,SSE,160,4.0,8.1,84,0.00,,,0.00,0.0,meteobridge,2013-07-31 01:22:00,
2013-07-30 20:27:00,81.1,75.9,29.99,SE,144,8.9,10.1,84,0.00,,,0.00,0.0,meteobridge,2013-07-31 01:27:00,
2013-07-30 20:32:00,81.0,76.1,29.99,SE,143,6.0,6.9,85,0.00,,,0.00,0.0,meteobridge,2013-07-31 01:32:00,
2013-07-30 20:37:00,80.8,75.9,29.99,SSE,161,4.9,6.9,85,0.00,,,0.00,0.0,meteobridge,2013-07-31 01:37:00,
2013-07-30 20:42:00,80.4,75.9,29.99,SSE,152,4.0,6.9,86,0.00,,,0.00,0.0,meteobridge,2013-07-31 01:42:00,
2013-07-30 20:47:00,80.1,75.9,29.99,SSE,150,2.9,6.0,87,0.00,,,0.00,0.0,meteobridge,2013-07-31 01:47:00,
2013-07-30 20:52:00,79.7,75.6,29.99,SSE,156,4.0,6.0,87,0.00,,,0.00,0.0,meteobridge,2013-07-31 01:52:00,
2013-07-30 20:57:00,79.5,75.6,29.99,SE,146,4.9,4.9,88,0.00,,,0.00,0.0,meteobridge,2013-07-31 01:57:00,
2013-07-30 21:02:00,79.3,75.6,29.99,SSE,150,2.0,4.0,88,0.00,,,0.00,0.0,meteobridge,2013-07-31 02:02:00,
2013-07-30 21:07:00,79.0,75.4,29.99,SE,146,2.0,2.9,89,0.00,,,0.00,0.0,meteobridge,2013-07-31 02:07:00,
2013-07-30 21:12:00,79.0,75.4,29.99,SE,143,0.9,2.0,89,0.00,,,0.00,0.0,meteobridge,2013-07-31 02:12:00,
2013-07-30 21:17:00,79.0,75.4,30.00,SE,143,0.0,0.9,89,0.00,,,0.00,0.0,meteobridge,2013-07-31 02:17:00,
2013-07-30 21:22:00,79.0,75.4,30.00,SE,144,0.0,2.9,89,0.00,,,0.00,0.0,meteobridge,2013-07-31 02:22:00,
2013-07-30 21:27:00,78.6,75.0,30.00,SE,142,2.0,2.9,89,0.00,,,0.00,0.0,meteobridge,2013-07-31 02:27:00,
2013-07-30 21:33:00,78.6,75.4,30.00,SE,144,2.9,4.9,90,0.00,,,0.00,0.0,meteobridge,2013-07-31 02:33:00,
2013-07-30 21:38:00,78.3,75.0,30.00,SE,142,0.9,2.9,90,0.00,,,0.00,0.0,meteobridge,2013-07-31 02:38:00,
2013-07-30 21:43:00,77.9,74.7,30.00,SSE,148,2.0,2.9,90,0.00,,,0.00,0.0,meteobridge,2013-07-31 02:43:00,
2013-07-30 21:48:00,77.7,74.8,30.00,SSE,148,2.0,2.9,91,0.00,,,0.00,0.0,meteobridge,2013-07-31 02:48:00,
2013-07-30 21:53:00,77.5,74.7,30.00,SSE,150,0.0,2.9,91,0.00,,,0.00,0.0,meteobridge,2013-07-31 02:53:00,
2013-07-30 21:58:00,77.4,74.5,30.00,SSE,150,0.0,0.0,91,0.00,,,0.00,0.0,meteobridge,2013-07-31 02:58:00,
2013-07-30 22:03:00,77.2,74.7,30.00,SSE,150,0.0,0.0,92,0.00,,,0.00,0.0,meteobridge,2013-07-31 03:03:00,
2013-07-30 22:08:00,77.2,74.7,30.00,SSE,163,2.9,4.0,92,0.00,,,0.00,0.0,meteobridge,2013-07-31 03:08:00,
2013-07-30 22:13:00,77.2,74.7,30.00,SSE,162,0.9,2.9,92,0.00,,,0.00,0.0,meteobridge,2013-07-31 03:13:00,
2013-07-30 22:18:00,77.0,74.5,30.01,SSE,165,2.0,2.0,92,0.00,,,0.00,0.0,meteobridge,2013-07-31 03:18:00,
2013-07-30 22:23:00,76.8,74.3,30.01,SSE,162,2.0,2.9,92,0.00,,,0.00,0.0,meteobridge,2013-07-31 03:23:00,
2013-07-30 22:28:00,77.0,74.8,30.01,SE,136,2.0,4.0,93,0.00,,,0.00,0.0,meteobridge,2013-07-31 03:28:00,
2013-07-30 22:33:00,77.2,75.0,30.01,SE,139,0.0,2.0,93,0.00,,,0.00,0.0,meteobridge,2013-07-31 03:33:00,
2013-07-30 22:38:00,77.2,75.0,30.01,SSE,154,0.0,0.9,93,0.00,,,0.00,0.0,meteobridge,2013-07-31 03:38:00,
2013-07-30 22:43:00,77.2,75.0,30.01,SSE,150,0.0,2.0,93,0.00,,,0.00,0.0,meteobridge,2013-07-31 03:43:00,
2013-07-30 22:48:00,77.2,74.7,30.02,SE,146,0.0,0.0,92,0.00,,,0.00,0.0,meteobridge,2013-07-31 03:48:00,
2013-07-30 22:53:00,77.2,74.7,30.02,SE,146,0.0,0.0,92,0.00,,,0.00,0.0,meteobridge,2013-07-31 03:53:00,
2013-07-30 22:59:00,77.0,74.5,30.02,SE,146,0.0,0.0,92,0.00,,,0.00,0.0,meteobridge,2013-07-31 03:59:00,
2013-07-30 23:01:00,76.8,74.3,30.02,SE,146,0.9,2.0,92,0.00,,,0.00,0.0,meteobridge,2013-07-31 04:01:00,
2013-07-30 23:03:00,76.8,74.3,30.02,SE,145,2.9,2.9,92,0.00,,,0.00,0.0,meteobridge,2013-07-31 04:03:00,
2013-07-30 23:09:00,76.8,74.7,30.02,SE,143,0.0,2.9,93,0.00,,,0.00,0.0,meteobridge,2013-07-31 04:09:00,
2013-07-30 23:14:00,76.8,74.7,30.02,SE,143,2.0,2.0,93,0.00,,,0.00,0.0,meteobridge,2013-07-31 04:14:00,
2013-07-30 23:19:00,76.5,74.3,30.02,SE,143,2.0,2.0,93,0.00,,,0.00,0.0,meteobridge,2013-07-31 04:19:00,
2013-07-30 23:24:00,76.5,74.3,30.02,SE,145,2.0,2.9,93,0.00,,,0.00,0.0,meteobridge,2013-07-31 04:24:00,
2013-07-30 23:29:00,76.3,74.1,30.02,SE,145,0.9,2.9,93,0.00,,,0.00,0.0,meteobridge,2013-07-31 04:29:00,
2013-07-30 23:34:00,76.3,74.1,30.02,SE,144,0.0,0.0,93,0.00,,,0.00,0.0,meteobridge,2013-07-31 04:34:00,
2013-07-30 23:40:00,75.9,73.8,30.02,SE,144,0.0,0.0,93,0.00,,,0.00,0.0,meteobridge,2013-07-31 04:40:00,
2013-07-30 23:45:00,75.7,73.6,30.02,SE,144,0.0,0.0,93,0.00,,,0.00,0.0,meteobridge,2013-07-31 04:45:00,
2013-07-30 23:50:00,75.9,74.1,30.02,SE,143,2.0,2.9,94,0.00,,,0.00,0.0,meteobridge,2013-07-31 04:50:00,
2013-07-30 23:55:00,75.9,73.8,30.02,SE,144,0.9,2.9,93,0.00,,,0.00,0.0,meteobridge,2013-07-31 04:55:00,